Regional Weather Roundup
Issued by NWS Mobile, AL

Home | Current Version | Previous Version | Text Only | Print | Product List | Glossary On
Versions: 1 2 3 4 5 6 7 8 9 10 11 12 13 14 15 16 17 18 19 20 21 22 23 24 25 26 27
000
ASUS44 KMOB 231412
RWRMOB
REGIONAL WEATHER ROUNDUP
NATIONAL WEATHER SERVICE MOBILE AL
900 AM CDT MON APR 23 2018

NOTE: "FAIR" INDICATES FEW OR NO CLOUDS BELOW 12,000 FEET WITH NO
      SIGNIFICANT WEATHER AND/OR OBSTRUCTIONS TO VISIBILITY.

  * THESE STATIONS ARE PART OF THE UNIVERSITY OF SOUTH ALABAMA
    MESONET AND ARE NOT UNDER NWS OR FAA QUALITY CONTROL.

ALZ061>064-231500-
COASTAL ALABAMA

CITY           SKY/WX    TMP DP  RH WIND       PRES   REMARKS
MOBILE REG APT CLOUDY    60  56  86 W7        29.99R
BROOKLEY FIELD CLOUDY    64  60  87 NW3       29.99R
USA CAMPUS*    NOT AVBL
DOG RIVER*     NOT AVBL


CITY           SKY/WX    TMP DP  RH WIND       PRES   REMARKS
GULF SHORES    PTSUNNY   64  60  88 W14G21    29.97S

$$

ALZ051>060-231500-
INTERIOR SOUTHWEST AND SOUTH CENTRAL ALABAMA

CITY           SKY/WX    TMP DP  RH WIND       PRES   REMARKS
GREENVILLE     CLOUDY    67  60  78 CALM      29.94S
EVERGREEN      PTSUNNY   68  62  81 CALM      29.95S
ATMORE*          N/A    N/A N/A N/A NW6       30.66R
ANDALUSIA/OPP  NOT AVBL
ANDALUSIA*       N/A     68  63  83 N2        29.95S
FLORALA APT    FAIR      70  63  78 CALM      29.96S
FLORALA*       NOT AVBL

$$

FLZ001>006-231500-
WESTERN FLORIDA PANHANDLE

CITY           SKY/WX    TMP DP  RH WIND       PRES   REMARKS
PENSACOLA        N/A     70  61  73 NW5       29.94R
NAS PENSACOLA  PTSUNNY   69  62  78 VRB5      29.94S
MILTON         PTSUNNY   68  65  90 E3        29.94S
WHTNG S FIELD  PTSUNNY   68  65  90 CALM      29.94S


CITY           SKY/WX    TMP DP  RH WIND       PRES   REMARKS
JAY*           NOT AVBL
DUKE FIELD     PTSUNNY   70  65  85 S7        29.94S
CRESTVIEW      PTSUNNY   68  64  87 VRB3      29.96S
VALPARAISO     PTSUNNY   72  66  80 SW7       29.93F
DESTIN         FAIR      75  65  70 SW6       29.94S

$$

MSZ076-079-231500-
INTERIOR SOUTHEAST MISSISSIPPI

CITY           SKY/WX    TMP DP  RH WIND       PRES   REMARKS
LEAKESVILLE*   NOT AVBL
AGRICOLA*        N/A     61  52  72 N8        29.98R

$$

MARINE OBSERVATIONS

STATION/POSITION TIME  TEMP    WIND        PRES    WAVE
                       AIR SEA DIR/SP/G            HT/PER
                 (UTC) (F)     (DEG/KT/KT) (MB)    (FT/S)
PETIT BOIS ISLND 1348   61     300/ 13/ 16 1016.3R
GRAND BAY        1230   61     300/  5     1016.0R
KATRINA CUT      1330   64     310/  9     1015.2S
CEDAR POINT      1330   63     310/ 12       N/A
E DAUPHIN ISLAND 1400   64     290/  9/ 11 1015.1R
MIDDLE BAY LIGHT 1330   63     280/  8     1014.6S
USCG MOBILE BAY  1348   62 69  310/  3/  7 1015.1R
STATE DOCKS      1342   63 65              1015.0R
MEAHER PARK      1330   61     300/  5     1015.2R
WEEKS BAY        1245   63                 1014.0S
FORT MORGAN      1348   64     290/ 12/ 14   N/A
12 S ORANGE BCH  1350   65     290/ 10/ 14 1014.7R   4/ 7
PENSACOLA BAY    1342   69 71  360/  3/  5 1014.0R
64 S DAUPHIN ISL 1350      71  290/ 12/ 17 1016.1R   4/ 6
67 S FORT MORGAN 1330   67                 1015.6R

$$

SELECTED LOCATIONS ACROSS THE REGION

CITY           SKY/WX    TMP DP  RH WIND       PRES   REMARKS
NEW ORLEANS    FAIR      63  52  67 W13       30.03R
GULFPORT       FAIR      62  50  64 NW12      30.00R
PASCAGOULA AP  FAIR      64  54  69 MISG      29.98S
PASCAGOULA*    NOT AVBL
HATTIESBURG    FAIR      59  51  75 NW12      29.99S
LAUREL         FAIR      57  52  83 VRB5      29.99F
MERIDIAN       CLOUDY    58  53  84 CALM      29.96S
JACKSON        CLOUDY    56  51  84 W7        29.96R
MONTGOMERY     PTSUNNY   64  62  93 N3        29.95S
TROY           FAIR      64  62  93 E6        29.95S
ASHFORD*         N/A     68  63  83 N2        29.95S
DOTHAN         CLOUDY    71  65  81 SW8       29.98S
PANAMA CITY    PTSUNNY   73  68  84 SW13      29.94S

$$





USA.gov is the U.S. government's official web portal to all federal, state and local government web resources and services.